Time,TemperatureF,DewpointF,PressureIn,WindDirection,WindDirectionDegrees,WindSpeedMPH,WindSpeedGustMPH,Humidity,HourlyPrecipIn,Conditions,Clouds,dailyrainin,SoftwareType,DateUTC
2013-07-24 00:01:00,57.0,39.0,29.96,NE,55,0.0,-999.0,50,-99.99,,,-99.99,,2013-07-24 06:01:00,
2013-07-24 00:11:00,57.0,39.0,29.95,ENE,58,0.0,-999.0,51,-99.99,,,-99.99,,2013-07-24 06:11:00,
2013-07-24 00:24:00,57.0,40.0,29.94,ENE,58,0.0,-999.0,53,-99.99,,,-99.99,,2013-07-24 06:24:00,
2013-07-24 00:34:00,57.0,40.0,29.94,ENE,58,0.0,-999.0,53,-99.99,,,-99.99,,2013-07-24 06:34:00,
2013-07-24 00:43:00,56.0,39.0,29.94,ENE,58,0.0,-999.0,53,-99.99,,,-99.99,,2013-07-24 06:43:00,
2013-07-24 00:53:00,56.0,40.0,29.93,ENE,58,0.0,-999.0,54,-99.99,,,-99.99,,2013-07-24 06:53:00,
2013-07-24 01:02:00,56.0,40.0,29.93,ENE,58,0.0,-999.0,54,-99.99,,,-99.99,,2013-07-24 07:02:00,
2013-07-24 01:12:00,55.0,39.0,29.92,ENE,58,0.0,-999.0,55,-99.99,,,-99.99,,2013-07-24 07:12:00,
2013-07-24 01:22:00,54.0,39.0,29.92,ENE,58,0.0,-999.0,57,-99.99,,,-99.99,,2013-07-24 07:22:00,
2013-07-24 01:32:00,54.0,39.0,29.92,ENE,58,0.0,-999.0,57,-99.99,,,-99.99,,2013-07-24 07:32:00,
2013-07-24 01:43:00,54.0,40.0,29.90,ENE,58,0.0,-999.0,58,-99.99,,,-99.99,,2013-07-24 07:43:00,
2013-07-24 01:52:00,53.0,39.0,29.90,ENE,58,0.0,-999.0,59,-99.99,,,-99.99,,2013-07-24 07:52:00,
2013-07-24 02:02:00,53.0,39.0,29.90,ENE,58,0.0,-999.0,59,-99.99,,,-99.99,,2013-07-24 08:02:00,
2013-07-24 02:12:00,53.0,39.0,29.89,ENE,58,0.0,-999.0,59,-99.99,,,-99.99,,2013-07-24 08:12:00,
2013-07-24 02:22:00,52.0,39.0,29.89,ENE,58,0.0,-999.0,60,-99.99,,,-99.99,,2013-07-24 08:22:00,
2013-07-24 02:32:00,52.0,39.0,29.89,ENE,58,0.0,-999.0,60,-99.99,,,-99.99,,2013-07-24 08:32:00,
2013-07-24 02:42:00,51.0,38.0,29.88,ENE,58,0.0,-999.0,61,-99.99,,,-99.99,,2013-07-24 08:42:00,
2013-07-24 02:52:00,50.0,38.0,29.88,ENE,58,0.0,-999.0,63,-99.99,,,-99.99,,2013-07-24 08:52:00,
2013-07-24 03:02:00,50.0,38.0,29.88,ENE,58,0.0,-999.0,63,-99.99,,,-99.99,,2013-07-24 09:02:00,
2013-07-24 03:12:00,49.0,37.0,29.87,ENE,58,0.0,-999.0,63,-99.99,,,-99.99,,2013-07-24 09:12:00,
2013-07-24 03:22:00,48.0,37.0,29.88,ENE,58,0.0,-999.0,65,-99.99,,,-99.99,,2013-07-24 09:22:00,
2013-07-24 03:32:00,48.0,37.0,29.88,ENE,58,0.0,-999.0,65,-99.99,,,-99.99,,2013-07-24 09:32:00,
2013-07-24 03:43:00,47.0,36.0,29.87,ENE,58,0.0,-999.0,66,-99.99,,,-99.99,,2013-07-24 09:43:00,
2013-07-24 03:53:00,46.0,36.0,29.87,ENE,58,0.0,-999.0,68,-99.99,,,-99.99,,2013-07-24 09:53:00,
2013-07-24 04:02:00,46.0,36.0,29.87,ENE,58,0.0,-999.0,68,-99.99,,,-99.99,,2013-07-24 10:02:00,
2013-07-24 04:12:00,46.0,36.0,29.86,ENE,58,0.0,-999.0,69,-99.99,,,-99.99,,2013-07-24 10:12:00,
2013-07-24 04:22:00,46.0,37.0,29.86,ENE,58,0.0,-999.0,70,-99.99,,,-99.99,,2013-07-24 10:22:00,
2013-07-24 04:33:00,46.0,37.0,29.86,ENE,58,0.0,-999.0,70,-99.99,,,-99.99,,2013-07-24 10:33:00,
2013-07-24 04:43:00,46.0,37.0,29.86,ENE,58,0.0,-999.0,71,-99.99,,,-99.99,,2013-07-24 10:43:00,
2013-07-24 04:53:00,46.0,37.0,29.86,ENE,58,0.0,-999.0,71,-99.99,,,-99.99,,2013-07-24 10:53:00,
2013-07-24 05:02:00,46.0,37.0,29.86,ENE,58,0.0,-999.0,71,-99.99,,,-99.99,,2013-07-24 11:02:00,
2013-07-24 05:12:00,47.0,38.0,29.86,ENE,58,0.0,-999.0,71,-99.99,,,-99.99,,2013-07-24 11:12:00,
2013-07-24 05:22:00,47.0,38.0,29.86,ENE,58,0.0,-999.0,70,-99.99,,,-99.99,,2013-07-24 11:22:00,
2013-07-24 05:32:00,47.0,38.0,29.86,ENE,58,0.0,-999.0,70,-99.99,,,-99.99,,2013-07-24 11:32:00,
2013-07-24 05:43:00,46.0,37.0,29.86,ENE,58,0.0,-999.0,71,-99.99,,,-99.99,,2013-07-24 11:43:00,
2013-07-24 05:52:00,46.0,37.0,29.86,ENE,58,0.0,-999.0,71,-99.99,,,-99.99,,2013-07-24 11:52:00,
2013-07-24 06:02:00,46.0,37.0,29.86,ENE,58,0.0,-999.0,71,-99.99,,,-99.99,,2013-07-24 12:02:00,
2013-07-24 06:12:00,46.0,37.0,29.86,ENE,58,0.0,-999.0,72,-99.99,,,-99.99,,2013-07-24 12:12:00,
2013-07-24 06:22:00,46.0,37.0,29.86,ENE,58,0.0,-999.0,72,-99.99,,,-99.99,,2013-07-24 12:22:00,
2013-07-24 06:32:00,46.0,37.0,29.86,ENE,58,0.0,-999.0,72,-99.99,,,-99.99,,2013-07-24 12:32:00,
2013-07-24 06:42:00,46.0,38.0,29.87,ENE,58,0.0,-999.0,73,-99.99,,,-99.99,,2013-07-24 12:42:00,
2013-07-24 06:52:00,46.0,38.0,29.87,ENE,58,0.0,-999.0,74,-99.99,,,-99.99,,2013-07-24 12:52:00,
2013-07-24 07:02:00,46.0,38.0,29.87,ENE,58,0.0,-999.0,74,-99.99,,,-99.99,,2013-07-24 13:02:00,
2013-07-24 07:12:00,47.0,39.0,29.87,ENE,58,0.0,-999.0,74,-99.99,,,-99.99,,2013-07-24 13:12:00,
2013-07-24 07:22:00,47.0,38.0,29.86,ENE,58,0.0,-999.0,72,-99.99,,,-99.99,,2013-07-24 13:22:00,
2013-07-24 07:32:00,47.0,38.0,29.86,ENE,58,0.0,-999.0,72,-99.99,,,-99.99,,2013-07-24 13:32:00,
2013-07-24 07:43:00,48.0,40.0,29.87,ENE,58,0.0,-999.0,73,-99.99,,,-99.99,,2013-07-24 13:43:00,
2013-07-24 07:53:00,49.0,41.0,29.87,ENE,58,0.0,-999.0,75,-99.99,,,-99.99,,2013-07-24 13:53:00,
2013-07-24 08:02:00,49.0,41.0,29.87,ENE,58,0.0,-999.0,75,-99.99,,,-99.99,,2013-07-24 14:02:00,
2013-07-24 08:12:00,50.0,40.0,29.86,ENE,58,0.0,-999.0,69,-99.99,,,-99.99,,2013-07-24 14:12:00,
2013-07-24 08:22:00,53.0,42.0,29.86,ENE,57,0.0,-999.0,66,-99.99,,,-99.99,,2013-07-24 14:22:00,
2013-07-24 08:32:00,53.0,42.0,29.86,ENE,57,0.0,-999.0,66,-99.99,,,-99.99,,2013-07-24 14:32:00,
2013-07-24 08:43:00,54.0,43.0,29.85,NE,53,0.0,-999.0,65,-99.99,,,-99.99,,2013-07-24 14:43:00,
2013-07-24 08:55:00,56.0,43.0,29.85,West,274,1.0,-999.0,62,-99.99,,,-99.99,,2013-07-24 14:55:00,
2013-07-24 09:02:00,56.0,43.0,29.85,West,274,1.0,-999.0,62,-99.99,,,-99.99,,2013-07-24 15:02:00,
2013-07-24 09:12:00,59.0,44.0,29.84,West,279,0.0,-999.0,58,-99.99,,,-99.99,,2013-07-24 15:12:00,
2013-07-24 09:22:00,61.0,44.0,29.84,SW,229,0.0,-999.0,54,-99.99,,,-99.99,,2013-07-24 15:22:00,
2013-07-24 09:32:00,61.0,44.0,29.84,SW,229,0.0,-999.0,54,-99.99,,,-99.99,,2013-07-24 15:32:00,
2013-07-24 09:43:00,62.0,43.0,29.83,WNW,298,0.0,-999.0,50,-99.99,,,-99.99,,2013-07-24 15:43:00,
2013-07-24 09:52:00,64.0,42.0,29.83,West,260,1.0,-999.0,45,-99.99,,,-99.99,,2013-07-24 15:52:00,
2013-07-24 10:02:00,64.0,42.0,29.83,West,260,1.0,-999.0,45,-99.99,,,-99.99,,2013-07-24 16:02:00,
2013-07-24 10:12:00,67.0,44.0,29.83,WNW,287,1.0,-999.0,44,-99.99,,,-99.99,,2013-07-24 16:12:00,
2013-07-24 10:22:00,67.0,43.0,29.82,WSW,256,0.0,-999.0,42,-99.99,,,-99.99,,2013-07-24 16:22:00,
2013-07-24 10:32:00,67.0,43.0,29.82,WSW,256,0.0,-999.0,42,-99.99,,,-99.99,,2013-07-24 16:32:00,
2013-07-24 10:43:00,67.0,43.0,29.83,West,269,1.0,-999.0,42,-99.99,,,-99.99,,2013-07-24 16:43:00,
2013-07-24 10:53:00,68.0,44.0,29.83,WNW,284,1.0,-999.0,42,-99.99,,,-99.99,,2013-07-24 16:53:00,
2013-07-24 11:02:00,68.0,44.0,29.83,WNW,284,1.0,-999.0,42,-99.99,,,-99.99,,2013-07-24 17:02:00,
2013-07-24 11:12:00,68.0,45.0,29.82,WNW,297,1.0,-999.0,44,-99.99,,,-99.99,,2013-07-24 17:12:00,
2013-07-24 11:22:00,66.0,45.0,29.83,WSW,245,1.0,-999.0,47,-99.99,,,-99.99,,2013-07-24 17:22:00,
2013-07-24 11:33:00,66.0,45.0,29.83,WSW,245,1.0,-999.0,47,-99.99,,,-99.99,,2013-07-24 17:33:00,
2013-07-24 11:43:00,64.0,45.0,29.83,WSW,249,0.0,-999.0,51,-99.99,,,-99.99,,2013-07-24 17:43:00,
2013-07-24 12:02:00,62.0,48.0,29.83,WSW,247,0.0,-999.0,60,-99.99,,,-99.99,,2013-07-24 18:02:00,
2013-07-24 12:12:00,60.0,47.0,29.82,WSW,247,0.0,-999.0,62,-99.99,,,-99.99,,2013-07-24 18:12:00,
2013-07-24 12:22:00,60.0,47.0,29.82,WSW,247,0.0,-999.0,62,-99.99,,,-99.99,,2013-07-24 18:22:00,
2013-07-24 12:33:00,60.0,47.0,29.82,WSW,247,0.0,-999.0,62,-99.99,,,-99.99,,2013-07-24 18:33:00,
2013-07-24 13:32:00,57.0,44.0,29.86,SW,219,1.0,-999.0,61,-99.99,,,-99.99,,2013-07-24 19:32:00,
2013-07-24 14:32:00,55.0,41.0,29.88,South,181,2.0,-999.0,58,-99.99,,,-99.99,,2013-07-24 20:32:00,
2013-07-24 14:42:00,58.0,41.0,29.87,East,90,2.0,-999.0,53,-99.99,,,-99.99,,2013-07-24 20:42:00,
2013-07-24 14:52:00,59.0,41.0,29.88,ENE,67,2.0,-999.0,51,-99.99,,,-99.99,,2013-07-24 20:52:00,
2013-07-24 15:02:00,59.0,41.0,29.88,ENE,67,2.0,-999.0,51,-99.99,,,-99.99,,2013-07-24 21:02:00,
2013-07-24 15:12:00,59.0,40.0,29.89,NNE,26,2.0,-999.0,49,-99.99,,,-99.99,,2013-07-24 21:12:00,
2013-07-24 15:22:00,58.0,40.0,29.90,WSW,247,2.0,-999.0,52,-99.99,,,-99.99,,2013-07-24 21:22:00,
2013-07-24 15:32:00,58.0,40.0,29.90,WSW,247,2.0,-999.0,52,-99.99,,,-99.99,,2013-07-24 21:32:00,
2013-07-24 15:43:00,57.0,39.0,29.88,South,186,1.0,-999.0,50,-99.99,,,-99.99,,2013-07-24 21:43:00,
2013-07-24 15:52:00,57.0,41.0,29.88,SSW,213,0.0,-999.0,54,-99.99,,,-99.99,,2013-07-24 21:52:00,
2013-07-24 16:02:00,57.0,41.0,29.88,SSW,213,0.0,-999.0,54,-99.99,,,-99.99,,2013-07-24 22:02:00,
2013-07-24 16:12:00,58.0,41.0,29.88,SW,218,0.0,-999.0,53,-99.99,,,-99.99,,2013-07-24 22:12:00,
2013-07-24 16:22:00,58.0,39.0,29.90,SW,218,0.0,-999.0,49,-99.99,,,-99.99,,2013-07-24 22:22:00,
2013-07-24 16:32:00,58.0,39.0,29.90,SW,218,0.0,-999.0,49,-99.99,,,-99.99,,2013-07-24 22:32:00,
2013-07-24 16:43:00,58.0,43.0,29.93,WSW,248,1.0,-999.0,58,-99.99,,,-99.99,,2013-07-24 22:43:00,
2013-07-24 16:53:00,54.0,42.0,29.93,NE,49,2.0,-999.0,64,-99.99,,,-99.99,,2013-07-24 22:53:00,
2013-07-24 17:02:00,54.0,42.0,29.93,NE,49,2.0,-999.0,64,-99.99,,,-99.99,,2013-07-24 23:02:00,
2013-07-24 17:22:00,53.0,43.0,29.92,SSE,162,1.0,-999.0,68,-99.99,,,-99.99,,2013-07-24 23:22:00,
2013-07-24 17:32:00,53.0,43.0,29.92,SSE,162,1.0,-999.0,68,-99.99,,,-99.99,,2013-07-24 23:32:00,
2013-07-24 17:43:00,53.0,43.0,29.93,SSE,162,0.0,-999.0,70,-99.99,,,-99.99,,2013-07-24 23:43:00,
2013-07-24 17:52:00,52.0,44.0,29.92,NNE,15,0.0,-999.0,75,-99.99,,,-99.99,,2013-07-24 23:52:00,
2013-07-24 18:02:00,52.0,44.0,29.92,NNE,15,0.0,-999.0,75,-99.99,,,-99.99,,2013-07-25 00:02:00,
2013-07-24 18:12:00,52.0,44.0,29.91,ENE,67,0.0,-999.0,73,-99.99,,,-99.99,,2013-07-25 00:12:00,
2013-07-24 18:22:00,52.0,44.0,29.88,ENE,74,0.0,-999.0,75,-99.99,,,-99.99,,2013-07-25 00:22:00,
2013-07-24 18:33:00,52.0,44.0,29.88,ENE,74,0.0,-999.0,75,-99.99,,,-99.99,,2013-07-25 00:33:00,
2013-07-24 18:43:00,52.0,44.0,29.88,ENE,74,0.0,-999.0,73,-99.99,,,-99.99,,2013-07-25 00:43:00,
2013-07-24 18:52:00,53.0,44.0,29.88,ENE,74,0.0,-999.0,72,-99.99,,,-99.99,,2013-07-25 00:52:00,
2013-07-24 19:02:00,53.0,44.0,29.88,ENE,74,0.0,-999.0,72,-99.99,,,-99.99,,2013-07-25 01:02:00,
2013-07-24 19:12:00,53.0,44.0,29.89,ENE,74,0.0,-999.0,71,-99.99,,,-99.99,,2013-07-25 01:12:00,
2013-07-24 19:22:00,53.0,44.0,29.89,SE,144,0.0,-999.0,72,-99.99,,,-99.99,,2013-07-25 01:22:00,
2013-07-24 19:32:00,53.0,44.0,29.89,SE,144,0.0,-999.0,72,-99.99,,,-99.99,,2013-07-25 01:32:00,
2013-07-24 19:53:00,52.0,44.0,29.89,SE,146,0.0,-999.0,75,-99.99,,,-99.99,,2013-07-25 01:53:00,
2013-07-24 20:02:00,52.0,44.0,29.89,SE,146,0.0,-999.0,75,-99.99,,,-99.99,,2013-07-25 02:02:00,
2013-07-24 20:12:00,51.0,43.0,29.91,SE,145,0.0,-999.0,75,-99.99,,,-99.99,,2013-07-25 02:12:00,
2013-07-24 20:22:00,51.0,43.0,29.91,SE,145,0.0,-999.0,75,-99.99,,,-99.99,,2013-07-25 02:22:00,
2013-07-24 20:33:00,50.0,43.0,29.93,SE,145,0.0,-999.0,77,-99.99,,,-99.99,,2013-07-25 02:33:00,
2013-07-24 20:43:00,49.0,42.0,29.93,SE,145,0.0,-999.0,78,-99.99,,,-99.99,,2013-07-25 02:43:00,
2013-07-24 20:52:00,48.0,42.0,29.93,SE,145,0.0,-999.0,79,-99.99,,,-99.99,,2013-07-25 02:52:00,
2013-07-24 21:02:00,48.0,42.0,29.93,SE,145,0.0,-999.0,79,-99.99,,,-99.99,,2013-07-25 03:02:00,
2013-07-24 21:14:00,47.0,41.0,29.95,SE,145,0.0,-999.0,81,-99.99,,,-99.99,,2013-07-25 03:14:00,
2013-07-24 21:24:00,46.0,41.0,29.97,SE,145,0.0,-999.0,82,-99.99,,,-99.99,,2013-07-25 03:24:00,
2013-07-24 21:44:00,45.0,40.0,29.97,SE,145,0.0,-999.0,83,-99.99,,,-99.99,,2013-07-25 03:44:00,
2013-07-24 21:52:00,45.0,40.0,29.98,SE,145,0.0,-999.0,83,-99.99,,,-99.99,,2013-07-25 03:52:00,
2013-07-24 22:02:00,45.0,40.0,29.98,SE,145,0.0,-999.0,83,-99.99,,,-99.99,,2013-07-25 04:02:00,
2013-07-24 22:12:00,44.0,39.0,29.98,SE,145,0.0,-999.0,84,-99.99,,,-99.99,,2013-07-25 04:12:00,
2013-07-24 22:22:00,44.0,40.0,29.98,SE,145,0.0,-999.0,85,-99.99,,,-99.99,,2013-07-25 04:22:00,
2013-07-24 22:32:00,44.0,40.0,29.98,SE,145,0.0,-999.0,85,-99.99,,,-99.99,,2013-07-25 04:32:00,
2013-07-24 22:43:00,43.0,39.0,29.98,SE,145,0.0,-999.0,85,-99.99,,,-99.99,,2013-07-25 04:43:00,
2013-07-24 22:53:00,42.0,38.0,29.98,SE,145,0.0,-999.0,86,-99.99,,,-99.99,,2013-07-25 04:53:00,
2013-07-24 23:02:00,42.0,38.0,29.98,SE,145,0.0,-999.0,86,-99.99,,,-99.99,,2013-07-25 05:02:00,
2013-07-24 23:12:00,42.0,38.0,29.98,SE,145,0.0,-999.0,86,-99.99,,,-99.99,,2013-07-25 05:12:00,
2013-07-24 23:22:00,41.0,38.0,29.98,SE,145,0.0,-999.0,88,-99.99,,,-99.99,,2013-07-25 05:22:00,
2013-07-24 23:32:00,41.0,38.0,29.98,SE,145,0.0,-999.0,88,-99.99,,,-99.99,,2013-07-25 05:32:00,
2013-07-24 23:43:00,41.0,38.0,29.99,SE,145,0.0,-999.0,88,-99.99,,,-99.99,,2013-07-25 05:43:00,
2013-07-24 23:52:00,41.0,38.0,29.99,SE,145,0.0,-999.0,88,-99.99,,,-99.99,,2013-07-25 05:52:00,